Probability
6 6 6 8 11 12 12 9 6 6 7 8 7 6 6 5 4 3 3 3 4 6 9 9 9 10 10 10 10 10 10 10 10 11 11 10 10 10 10 10 9 8 6
6 6 7 8 10 12 12 10 8 7 7 8 7 7 6 5 4 4 4 4 5 6 7 9 9 9 10 10 10 10 10 10 10 10 10 10 9 9 9 9 9 8 7
5 6 7 9 10 10 10 10 10 9 9 9 9 8 7 6 5 5 6 6 6 6 7 7 9 10 10 11 11 12 11 11 10 10 10 9 8 8 8 9 9 9 8
5 6 7 8 8 8 9 9 10 11 11 11 10 9 9 8 8 8 7 6 6 6 6 6 8 11 13 13 13 13 14 12 10 10 10 10 10 8 8 9 10 10 9
6 6 7 8 8 9 9 10 11 12 12 11 10 10 10 9 10 9 7 6 6 6 5 6 9 13 15 15 14 15 15 13 11 10 11 12 12 10 9 9 10 11 11
5 6 7 9 10 11 12 12 12 13 13 12 11 12 12 12 10 9 7 6 6 6 6 7 11 14 16 16 16 15 14 13 12 13 13 13 13 12 11 10 10 11 12
4 4 7 9 10 12 14 14 16 17 16 14 14 15 16 15 12 9 7 6 7 7 8 11 14 15 15 16 17 16 15 15 14 14 14 14 13 13 12 11 10 10 11
3 5 9 10 10 11 14 16 20 21 19 16 16 19 20 19 17 14 10 9 9 11 12 13 15 16 17 17 17 17 17 16 15 14 15 16 14 14 12 11 10 10 11
4 6 10 12 9 9 11 14 20 22 20 18 18 21 24 25 24 22 18 15 14 15 16 16 16 17 18 18 17 17 16 15 13 13 15 15 14 13 11 10 10 10 11
4 6 9 11 9 6 7 10 15 20 20 19 19 20 24 27 28 27 25 21 19 21 21 20 19 20 20 18 16 15 14 12 11 12 13 12 12 12 11 11 11 11 11
4 5 7 10 9 6 5 7 11 16 19 19 18 19 22 26 26 26 25 22 23 25 27 25 23 23 23 21 17 15 12 10 9 10 10 9 9 10 12 13 15 14 12
4 5 7 10 11 9 7 9 11 15 19 21 19 18 21 25 27 26 24 24 25 29 30 28 26 26 26 25 22 19 14 10 9 8 7 6 7 8 10 13 15 15 13
4 5 8 12 15 14 14 14 15 17 20 24 23 20 22 26 28 28 28 28 29 30 30 29 27 25 24 23 23 21 15 10 7 5 5 5 6 7 9 11 13 12 10
5 6 9 13 16 18 19 20 21 21 22 24 24 23 25 28 30 30 30 31 31 30 29 27 24 21 18 17 18 18 15 10 6 5 4 6 6 6 7 8 8 8 7
5 6 9 13 16 19 21 22 24 25 25 25 26 27 30 32 31 29 28 29 29 27 25 23 20 17 13 12 12 14 15 12 8 7 6 6 5 4 3 3 4 5 5
6 7 10 13 15 20 22 23 27 29 30 31 31 32 33 33 30 27 25 25 24 21 19 18 17 16 13 10 8 11 14 13 11 9 8 6 5 3 1 0 1 1 2
8 8 11 15 17 20 24 27 31 34 35 34 33 33 33 31 29 25 23 21 18 16 16 16 16 16 13 9 5 7 10 12 11 11 10 8 6 5 3 2 1 1 1
11 12 15 19 20 22 25 29 33 35 34 31 29 29 29 29 27 25 22 19 17 15 14 14 14 16 14 8 4 4 8 11 11 11 11 10 8 5 5 5 4 3 3
16 18 20 22 24 25 26 28 30 31 29 26 25 26 27 27 26 24 21 20 19 18 16 15 16 17 15 9 4 4 8 11 12 11 10 9 7 4 4 5 5 5 6
21 21 23 25 26 26 27 27 26 26 25 24 24 25 26 26 26 24 21 20 22 21 20 19 20 21 18 11 5 4 8 11 12 11 9 6 4 2 2 3 5 6 6
22 22 24 27 27 28 29 27 25 24 24 23 23 23 24 25 25 23 20 19 21 22 21 21 23 23 19 13 6 4 7 10 11 11 10 6 3 1 1 3 5 5 5
21 22 25 28 27 28 29 28 26 25 24 23 23 24 24 23 22 21 19 18 19 20 19 19 21 21 18 13 7 3 4 7 11 13 12 9 4 1 0 2 3 3 2
22 23 25 27 27 25 25 26 25 24 24 23 23 23 22 20 20 20 19 17 17 17 17 17 19 19 16 13 10 5 3 4 9 12 11 8 3 1 1 1 1 1 2
21 22 23 25 25 22 20 21 21 22 23 22 20 20 19 19 19 20 18 17 16 16 16 18 18 17 17 16 14 11 7 6 8 11 10 7 5 4 5 5 4 4 4
19 18 19 21 21 19 16 15 16 18 20 19 17 18 18 18 18 18 17 15 14 13 13 14 15 15 14 15 15 13 11 10 10 10 11 10 10 10 11 11 10 9 7
15 15 16 16 17 16 14 12 12 15 18 17 16 16 17 18 17 16 15 14 12 10 9 9 10 11 11 11 12 12 11 10 10 10 11 11 12 13 13 14 13 11 8
Wind_Speed
8 8 7 7 7 6 6 5 5 5 4 3 3 2 2 2 2 2 3 3 2 3 2 2 4 3 3 3 4 4 4 3 3 3 3 2 2 2 2 1 2 2 2
8 8 8 7 7 7 7 6 6 6 5 4 2 2 1 1 1 1 2 3 3 2 3 3 3 3 3 4 4 4 3 3 3 2 2 2 3 2 2 2 2 2 2
9 10 9 9 8 8 8 6 6 6 5 5 4 3 3 2 2 3 2 2 2 2 2 3 2 3 3 4 5 5 5 3 3 2 2 2 1 2 2 2 2 1 1
9 9 10 9 9 8 8 8 7 7 6 6 5 4 3 2 2 1 2 2 3 3 3 3 3 3 2 3 4 4 3 4 3 2 2 2 1 1 2 3 2 2 2
9 9 9 9 9 8 8 8 8 7 7 6 6 5 4 2 2 2 2 2 2 3 3 3 3 3 3 3 3 3 4 3 3 2 2 2 2 3 2 2 2 2 2
9 9 9 9 8 8 8 8 8 8 7 7 6 6 4 3 2 2 2 2 2 3 3 3 3 4 3 3 3 4 5 3 3 3 3 3 3 3 3 2 2 1 1
8 9 10 10 10 9 9 8 8 8 8 8 7 7 6 5 5 4 3 3 2 2 3 3 3 3 3 3 3 4 4 4 4 4 4 3 3 2 2 2 2 2 1
8 9 10 10 10 10 9 9 8 8 8 8 7 6 6 5 4 4 3 3 2 2 2 3 3 3 3 3 3 4 4 3 4 4 4 4 3 3 3 3 3 3 3
7 8 9 9 10 10 10 10 9 8 8 8 8 7 7 5 4 4 4 3 2 2 3 3 3 3 3 3 4 3 3 3 4 4 5 4 3 3 3 3 3 3 3
6 7 8 9 9 9 9 9 9 8 8 8 7 7 7 6 5 5 4 3 3 2 3 3 3 3 3 3 4 3 3 3 3 2 3 3 3 2 3 3 3 4 4
5 6 6 7 9 9 9 9 9 9 8 8 7 6 6 6 6 5 5 4 4 4 4 4 4 3 3 3 3 3 3 4 3 3 3 4 3 3 3 3 3 3 3
5 5 5 6 7 8 9 9 8 8 8 8 7 7 6 6 6 5 4 4 4 4 4 4 4 4 3 3 3 4 3 4 4 4 3 4 3 3 4 3 3 3 3
4 4 5 5 6 7 7 8 8 8 8 8 8 7 7 6 6 5 4 4 4 4 4 4 4 3 3 3 3 3 3 3 3 3 4 4 4 4 3 4 4 3 3
4 4 4 5 5 5 6 7 8 7 7 7 7 7 7 6 6 5 5 5 4 4 4 3 3 3 3 3 3 3 3 3 3 3 3 4 5 4 4 4 4 4 4
4 5 4 4 5 5 6 6 7 7 7 7 7 7 6 6 6 5 5 5 5 4 4 3 3 3 3 2 2 3 4 3 3 3 3 3 1 2 3 4 3 3 4
3 4 4 4 5 6 6 6 7 7 7 7 7 6 6 6 5 5 5 5 4 4 4 4 4 4 2 4 1 3 3 3 3 3 3 3 4 3 2 1 2 3 4
2 2 3 4 4 5 5 6 6 6 6 6 6 6 6 6 6 6 5 5 5 4 4 4 4 3 2 5 3 3 4 4 3 3 3 4 2 3 3 4 5 4 3
1 2 2 3 3 4 4 5 6 6 6 6 6 6 6 6 5 5 5 5 4 4 4 4 4 4 3 5 4 4 5 4 4 4 4 4 3 2 2 3 3 3 3
1 1 1 2 3 3 4 5 6 6 6 6 6 6 6 6 5 5 5 4 4 4 4 4 4 4 3 5 5 5 5 4 4 4 4 4 3 2 1 3 4 3 3
1 0 1 2 3 3 4 5 6 6 6 5 5 5 5 5 5 5 4 4 4 4 4 4 4 4 4 5 5 5 5 4 4 4 4 3 2 3 2 5 5 5 4
2 2 2 2 3 4 5 5 5 5 5 5 5 5 5 5 4 4 4 3 4 3 4 3 4 4 4 6 7 6 5 4 4 4 4 3 5 4 4 6 5 3 4
2 2 3 3 3 4 4 4 3 3 3 4 4 4 4 4 4 4 4 4 4 4 4 4 4 4 4 4 6 7 7 6 5 4 3 2 6 5 5 5 2 2 5
3 3 3 3 3 3 3 4 3 2 3 4 4 4 4 4 4 5 5 5 4 4 4 4 4 3 3 4 7 8 8 7 6 4 1 1 5 5 6 6 5 5 6
4 3 3 3 3 3 3 3 2 2 2 3 3 3 4 4 3 3 3 3 3 4 4 4 3 3 3 3 3 4 6 7 6 5 3 6 7 7 5 5 6 6 5
4 4 3 3 3 3 3 3 2 2 2 2 2 3 3 3 3 3 2 3 2 2 3 3 3 3 3 2 2 3 4 4 4 4 5 4 4 5 5 5 4 5 5
4 4 4 3 3 3 3 3 2 1 1 2 1 1 2 2 2 3 3 2 2 3 3 2 3 2 1 2 4 5 5 5 4 4 4 4 5 5 5 4 4 5 5
Wind_Direction
177 174 177 173 168 167 171 176 176 170 180 178 182 178 167 173 155 148 134 144 154 158 168 156 146 164 151 157 158 153 151 156 156 149 144 155 161 156 159 186 186 171 175
179 179 181 180 177 175 180 181 183 180 188 172 176 179 172 171 149 141 136 155 160 175 171 166 165 160 156 163 168 174 176 170 183 197 187 179 168 167 164 170 186 194 187
183 181 184 185 183 182 184 184 184 182 188 179 176 170 171 187 166 164 162 173 178 180 174 167 170 175 188 175 184 193 199 190 194 226 254 235 172 146 152 181 188 196 227
185 183 183 185 188 187 183 184 184 185 184 187 188 188 184 178 165 168 149 177 184 185 183 180 180 200 199 177 201 193 207 214 204 192 232 285 319 237 167 180 179 197 219
185 185 186 185 189 187 185 183 185 187 187 191 188 198 198 186 172 164 154 207 185 193 197 191 189 198 202 196 208 195 217 220 227 219 208 196 206 236 231 205 196 198 200
184 184 185 184 187 187 187 185 182 188 189 193 195 203 198 192 184 194 192 205 190 193 195 203 196 206 206 200 208 211 213 232 244 248 237 222 221 221 218 221 223 215 184
185 184 183 185 188 187 185 185 183 188 191 195 198 199 196 197 196 205 202 217 203 196 183 198 204 209 204 207 216 219 229 224 228 238 244 240 240 236 230 230 228 227 200
186 187 186 187 189 189 187 186 185 189 189 192 197 199 197 206 198 201 214 210 220 206 174 195 206 211 206 209 212 228 221 216 227 238 245 246 239 233 228 235 231 229 222
183 186 185 187 189 191 190 191 187 191 192 192 191 194 197 206 201 197 208 210 213 203 183 191 198 211 213 217 220 223 223 220 230 230 225 235 231 231 228 231 239 249 247
184 185 186 186 191 192 191 192 191 193 195 195 196 190 192 195 199 205 197 206 209 206 193 197 196 201 206 211 224 218 211 223 228 239 246 244 238 230 230 231 239 254 268
183 185 188 187 190 189 187 192 191 192 194 197 197 196 191 191 193 197 201 204 207 198 193 194 197 198 204 212 220 231 210 222 225 229 222 231 246 246 239 230 235 242 253
178 178 182 183 188 188 185 186 191 194 194 193 194 196 194 191 194 195 198 202 201 203 196 194 194 199 196 203 215 224 218 222 227 229 229 229 222 231 250 245 243 242 245
181 179 179 183 190 190 189 186 191 193 193 190 193 192 192 190 193 193 193 196 198 202 197 190 191 194 196 203 213 220 223 225 230 229 226 227 224 234 240 250 248 242 235
178 176 179 184 189 193 194 193 191 188 189 191 194 191 192 192 190 190 192 196 196 193 189 186 186 185 193 201 202 208 216 225 235 238 235 230 231 235 238 239 243 250 249
188 180 180 184 189 191 195 194 192 187 186 189 193 190 191 190 190 192 195 194 195 193 183 180 180 187 198 199 202 208 206 212 223 228 236 239 260 340 292 283 261 251 254
205 197 190 189 195 196 195 190 189 186 186 189 190 184 187 187 188 193 195 193 192 188 183 187 189 205 206 103 114 251 210 211 221 225 230 218 200 179 194 276 307 296 266
232 226 208 200 196 197 192 187 183 180 184 187 183 179 182 185 189 194 193 195 195 189 196 198 202 213 160 132 167 240 240 222 223 225 234 244 185 201 199 185 201 220 239
288 261 229 201 192 181 176 179 173 176 176 176 178 181 185 189 188 191 193 198 199 197 203 208 212 217 174 155 185 216 232 233 226 228 232 246 236 230 229 232 230 233 223
311 276 244 184 165 165 167 171 169 167 172 177 182 185 187 189 189 192 195 198 199 202 206 207 208 212 186 168 186 216 227 225 229 233 234 236 227 120 196 244 244 243 229
31 76 148 148 147 151 160 166 172 174 179 181 183 181 184 190 193 192 193 195 199 206 208 206 210 212 207 168 179 221 235 223 226 222 218 209 224 149 203 239 244 247 247
50 80 111 115 128 140 153 162 172 179 181 178 177 179 183 188 185 183 186 194 203 207 213 214 217 216 212 174 180 209 246 236 234 231 224 186 159 179 214 247 252 265 274
58 84 99 99 117 128 140 146 153 163 168 173 176 180 186 193 181 182 187 195 202 203 210 218 224 214 201 194 185 198 235 277 250 250 249 187 158 193 219 235 247 250 260
56 72 92 97 100 109 120 121 116 137 158 165 173 178 184 193 192 192 193 196 201 215 219 220 222 217 205 184 182 196 218 245 255 259 303 161 183 204 217 221 216 223 239
63 65 76 82 84 82 87 92 89 111 145 157 166 176 180 186 190 201 204 210 214 223 228 231 232 225 212 219 202 203 209 220 234 246 210 193 203 225 238 211 213 232 243
61 58 62 70 77 77 75 71 77 95 120 140 164 181 177 182 189 191 210 220 220 240 250 248 241 240 236 228 224 229 226 231 233 239 232 227 218 224 228 230 230 235 235
56 53 55 63 67 69 67 57 60 86 114 138 156 185 190 187 199 195 193 187 223 192 209 248 263 249 256 191 197 224 244 247 228 228 235 237 238 242 244 243 239 236 242